Latest Weather Observations for Campbelltown

IDN60801

Issued at 7:35 pm EST Wednesday 23 July 2014 (issued every 30 minutes, with the page automatically refreshed every 10 minutes)

About weather observations | Map of weather stations | Latest weather observations for NSW | Other Formats
Station Details ID: 068257 Name: CAMPBELLTOWN (MOUNT ANNAN) Lat: -34.06 Lon: 150.77 Height: 112.0 m
Data from the previous 72 hours. | See also: Recent months at Campbelltown
Date/Time
EST
Temp
°C
App
Temp
°C
Dew
Point
Rel
Hum
%
Delta-T
°C
Wind Press
QNH
hPa
Press
MSL
hPa
Rain
since 9 am
mm
Dir
 
Spd
km/h
Gust
km/h
Spd
kts
Gust
kts
23/07:30pm 10.8 9.0 8.0 83 1.4 E 7 9 4 5 - - 0.0
23/07:00pm 11.2 9.5 8.2 82 1.5 E 7 11 4 6 - - 0.0
23/06:30pm 12.3 10.9 8.8 79 1.8 E 6 9 3 5 - - 0.0
23/06:00pm 12.7 11.2 8.4 75 2.1 E 6 11 3 6 - - 0.0
23/05:30pm 13.2 11.6 8.1 71 2.5 E 6 11 3 6 - - 0.0
23/05:00pm 14.1 12.4 8.3 68 2.9 E 7 13 4 7 - - 0.0
23/04:30pm 14.6 12.1 4.6 51 4.7 NNE 7 9 4 5 - - 0.0
23/04:00pm 16.0 13.1 4.4 46 5.5 NNE 9 13 5 7 - - 0.0
23/03:30pm 17.9 15.2 5.8 45 5.9 NNE 9 13 5 7 - - 0.0
23/03:00pm 17.7 15.1 6.3 47 5.6 NE 9 15 5 8 - - 0.0
23/02:30pm 18.2 15.2 6.1 45 6.0 N 11 19 6 10 - - 0.0
23/02:00pm 18.3 15.9 6.8 47 5.8 N 9 13 5 7 - - 0.0
23/01:30pm 16.3 13.9 7.0 54 4.6 N 9 15 5 8 - - 0.0
23/01:00pm 17.7 15.3 7.2 50 5.3 N 9 13 5 7 - - 0.0
23/12:30pm 17.1 14.7 7.2 52 5.0 N 9 13 5 7 - - 0.0
23/12:00pm 15.6 13.1 6.6 55 4.4 N 9 15 5 8 - - 0.0
23/11:30am 16.5 14.9 8.2 58 4.2 N 6 9 3 5 - - 0.0
23/11:00am 15.6 14.1 8.4 62 3.7 WNW 6 11 3 6 - - 0.0
23/10:30am 14.7 13.2 8.6 67 3.1 SW 6 9 3 5 - - 0.0
23/10:00am 13.1 11.5 8.6 74 2.3 WSW 7 13 4 7 - - 0.0
23/09:30am 12.4 11.0 8.9 79 1.8 SW 6 9 3 5 - - 0.0
23/09:00am 10.6 8.5 8.2 85 1.2 SSW 9 11 5 6 - - 0.0
23/08:30am 9.2 7.0 7.8 91 0.7 SSW 9 15 5 8 - - 0.0
23/08:00am 7.7 6.0 7.6 99 0.0 S 6 9 3 5 - - 0.0
23/07:30am 5.9 4.6 5.8 99 0.0 SW 2 7 1 4 - - 0.0
23/07:00am 5.5 3.2 4.8 95 0.3 SSW 6 9 3 5 - - 0.0
23/06:30am 5.9 3.5 5.3 96 0.3 SSW 7 11 4 6 - - 0.0
23/06:00am 7.0 4.9 6.6 97 0.2 S 7 15 4 8 - - 0.0
23/05:30am 7.3 4.9 7.2 99 0.0 S 9 13 5 7 - - 0.0
23/05:00am 6.7 4.5 6.1 96 0.3 SSW 7 11 4 6 - - 0.0
23/04:30am 7.9 5.6 7.6 98 0.1 S 9 11 5 6 - - 0.0
23/04:00am 7.7 5.4 7.6 99 0.0 SSW 9 13 5 7 - - 0.0
23/03:30am 7.8 5.9 7.7 99 0.0 S 7 11 4 6 - - 0.0
23/03:00am 7.1 5.1 7.0 99 0.0 SSW 7 15 4 8 - - 0.0
23/02:30am 7.1 5.0 6.8 98 0.1 SSW 7 9 4 5 - - 0.0
23/02:00am 8.2 6.6 7.9 98 0.1 SSW 6 7 3 4 - - 0.0
23/01:30am 8.5 6.9 8.1 97 0.2 S 6 13 3 7 - - 0.0
23/01:00am 9.3 7.8 9.2 99 0.0 SSW 7 11 4 6 - - 0.0
23/12:30am 8.9 7.3 8.8 99 0.0 S 7 11 4 6 - - 0.0
23/12:00am 8.5 6.8 8.4 99 0.0 S 7 11 4 6 - - 0.0
 
Date/Time
EST
Temp
°C
App
Temp
°C
Dew
Point
Rel
Hum
%
Delta-T
°C
Wind Press
QNH
hPa
Press
MSL
hPa
Rain
since 9 am
mm
Dir
 
Spd
km/h
Gust
km/h
Spd
kts
Gust
kts
22/11:30pm 8.1 6.3 8.0 99 0.0 SSW 7 9 4 5 - - 0.0
22/11:00pm 7.2 6.1 6.9 98 0.1 S 2 6 1 3 - - 0.0
22/10:30pm 8.4 6.9 8.3 99 0.0 S 6 6 3 3 - - 0.0
22/10:00pm 8.5 8.1 8.4 99 0.0 CALM 0 0 0 0 - - 0.0
22/09:30pm 8.1 7.6 8.0 99 0.0 CALM 0 0 0 0 - - 0.0
22/09:00pm 8.0 7.5 7.7 98 0.1 CALM 0 0 0 0 - - 0.0
22/08:30pm 7.9 7.3 7.5 97 0.2 CALM 0 0 0 0 - - 0.0
22/08:00pm 7.9 7.3 7.5 97 0.2 CALM 0 0 0 0 - - 0.0
22/07:30pm 7.9 7.2 6.8 93 0.5 CALM 0 0 0 0 - - 0.0
22/07:00pm 8.7 8.1 7.3 91 0.7 CALM 0 0 0 0 - - 0.0
22/06:30pm 10.2 9.8 8.1 87 1.0 CALM 0 0 0 0 - - 0.0
22/06:00pm 11.9 10.5 8.7 81 1.6 SE 6 7 3 4 - - 0.0
22/05:30pm 12.9 11.3 8.6 75 2.2 ESE 7 11 4 6 - - 0.0
22/05:00pm 14.0 11.9 8.2 68 2.9 ESE 9 15 5 8 - - 0.0
22/04:30pm 15.8 13.8 8.8 63 3.6 E 9 13 5 7 - - 0.0
22/04:00pm 16.5 14.4 8.2 58 4.2 E 9 15 5 8 - - 0.0
22/03:30pm 17.4 15.3 8.3 55 4.7 E 9 15 5 8 - - 0.0
22/03:00pm 17.6 15.1 6.5 48 5.5 ENE 9 15 5 8 - - 0.0
22/02:30pm 18.3 15.7 7.7 50 5.4 E 11 20 6 11 - - 0.0
22/02:00pm 18.4 15.5 8.1 51 5.3 SE 13 20 7 11 - - 0.0
22/01:30pm 18.9 16.9 6.1 43 6.4 NW 6 9 3 5 - - 0.0
22/01:00pm 18.0 15.4 5.9 45 6.0 NNW 9 11 5 6 - - 0.0
22/12:30pm 17.7 15.7 7.2 50 5.3 N 7 13 4 7 - - 0.0
22/12:00pm 16.9 14.9 7.0 52 4.9 SE 7 11 4 6 - - 0.0
22/11:30am 16.0 14.3 7.5 57 4.3 S 6 11 3 6 - - 0.0
22/11:00am 15.1 13.2 7.4 60 3.8 SSW 7 13 4 7 - - 0.0
22/10:30am 14.5 12.8 8.5 67 3.0 SW 7 11 4 6 - - 0.0
22/10:00am 12.6 10.9 8.3 75 2.1 SW 7 13 4 7 - - 0.0
22/09:30am 11.0 8.8 8.0 82 1.5 SW 9 11 5 6 - - 0.0
22/09:00am 9.2 7.5 7.5 89 0.8 S 6 9 3 5 - - 0.0
22/08:30am 7.9 5.5 6.8 93 0.5 S 9 13 5 7 - - 0.0
22/08:00am 7.2 4.8 7.1 99 0.0 S 9 15 5 8 - - 0.0
22/07:30am 4.1 1.6 4.0 99 0.0 SSW 6 7 3 4 - - 0.0
22/07:00am 3.9 2.5 3.8 99 0.0 CALM 0 0 0 0 - - 0.0
22/06:30am 4.5 2.9 4.4 99 0.0 SSW 2 6 1 3 - - 0.0
22/06:00am 5.4 4.3 5.1 98 0.1 CALM 0 0 0 0 - - 0.0
22/05:30am 5.9 4.9 5.5 97 0.2 CALM 0 0 0 0 - - 0.0
22/05:00am 7.0 5.0 6.9 99 0.0 SSW 7 9 4 5 - - 0.0
22/04:30am 7.3 4.9 7.2 99 0.0 SSW 9 13 5 7 - - 0.0
22/04:00am 7.2 4.8 7.1 99 0.0 SSW 9 13 5 7 - - 0.0
22/03:30am 6.9 4.5 6.8 99 0.0 SSW 9 11 5 6 - - 0.0
22/03:00am 6.7 4.6 6.6 99 0.0 SSW 7 11 4 6 - - 0.0
22/02:30am 5.8 3.7 5.7 99 0.0 S 6 7 3 4 - - 0.0
22/02:00am 6.6 4.7 6.5 99 0.0 SSW 6 11 3 6 - - 0.0
22/01:30am 5.9 3.6 5.8 99 0.0 SSW 7 11 4 6 - - 0.0
22/01:00am 5.4 4.0 5.3 99 0.0 S 2 7 1 4 - - 0.0
22/12:30am 4.7 3.5 4.6 99 0.0 CALM 0 0 0 0 - - 0.0
22/12:00am 5.7 4.7 5.6 99 0.0 CALM 0 0 0 0 - - 0.0
 
Date/Time
EST
Temp
°C
App
Temp
°C
Dew
Point
Rel
Hum
%
Delta-T
°C
Wind Press
QNH
hPa
Press
MSL
hPa
Rain
since 9 am
mm
Dir
 
Spd
km/h
Gust
km/h
Spd
kts
Gust
kts
21/11:30pm 6.7 4.8 6.6 99 0.0 S 6 7 3 4 - - 0.0
21/11:00pm 6.8 4.9 6.7 99 0.0 S 6 7 3 4 - - 0.0
21/10:30pm 5.6 3.4 5.5 99 0.0 SSW 6 7 3 4 - - 0.0
21/10:00pm 6.1 5.2 6.0 99 0.0 CALM 0 0 0 0 - - 0.0
21/09:30pm 6.9 6.2 6.8 99 0.0 CALM 0 0 0 0 - - 0.0
21/09:00pm 6.7 5.1 6.4 98 0.1 S 4 6 2 3 - - 0.0
21/08:30pm 7.4 6.7 7.1 98 0.1 CALM 0 0 0 0 - - 0.0
21/08:00pm 8.0 7.1 7.7 98 0.1 S 2 7 1 4 - - 0.0
21/07:30pm 8.4 7.8 7.6 95 0.4 CALM 0 0 0 0 - - 0.0
21/07:00pm 9.0 8.6 8.1 94 0.4 CALM 0 0 0 0 - - 0.0
21/06:30pm 9.8 8.6 8.2 90 0.8 SE 4 6 2 3 - - 0.0
21/06:00pm 10.6 9.3 7.8 83 1.4 S 4 6 2 3 - - 0.0
21/05:30pm 12.2 11.0 7.9 75 2.1 SSE 4 7 2 4 - - 0.0
21/05:00pm 13.6 12.0 8.7 72 2.5 SE 7 11 4 6 - - 0.0
21/04:30pm 14.1 12.1 8.5 69 2.8 E 9 15 5 8 - - 0.0
21/04:00pm 14.6 12.6 8.5 67 3.1 ESE 9 17 5 9 - - 0.0
21/03:30pm 15.2 12.7 8.0 62 3.6 ESE 11 19 6 10 - - 0.0
21/03:00pm 16.2 14.0 7.9 58 4.2 E 9 13 5 7 - - 0.0
21/02:30pm 16.5 13.3 6.9 53 4.8 ESE 13 19 7 10 - - 0.0
21/02:00pm 18.4 16.2 5.3 42 6.4 N 6 13 3 7 - - 0.0
21/01:30pm 17.7 15.0 5.6 45 5.9 NNW 9 13 5 7 - - 0.0
21/01:00pm 17.5 15.3 5.1 44 6.0 W 6 9 3 5 - - 0.0
21/12:30pm 16.3 14.0 4.7 46 5.5 S 6 13 3 7 - - 0.0
21/12:00pm 16.0 13.5 4.7 47 5.3 W 7 15 4 8 - - 0.0
21/11:30am 14.9 12.7 6.0 55 4.3 W 7 11 4 6 - - 0.0
21/11:00am 13.5 11.0 4.9 56 4.0 SW 7 13 4 7 - - 0.0
21/10:30am 13.0 10.6 5.4 60 3.6 SW 7 9 4 5 - - 0.0
21/10:00am 11.7 9.3 5.3 65 3.0 SW 7 13 4 7 - - 0.0
21/09:30am 10.6 8.7 4.9 68 2.6 SW 4 9 2 5 - - 0.0
21/09:00am 8.9 6.8 6.0 82 1.3 S 6 9 3 5 - - 0.0
21/08:30am 6.7 4.5 5.5 92 0.5 S 6 9 3 5 - - 0.0
21/08:00am 4.3 1.9 4.2 99 0.0 SSW 6 7 3 4 - - 0.0
21/07:30am 2.8 1.2 2.5 98 0.1 CALM 0 0 0 0 - - 0.0
21/07:00am 2.8 0.1 2.5 98 0.1 SW 6 11 3 6 - - 0.0
21/06:30am 2.6 -0.1 2.5 99 0.0 S 6 9 3 5 - - 0.0
21/06:00am 3.2 0.6 3.1 99 0.0 S 6 9 3 5 - - 0.0
21/05:30am 2.1 0.4 2.0 99 0.0 CALM 0 0 0 0 - - 0.0
21/05:00am 3.0 0.3 2.9 99 0.0 S 6 9 3 5 - - 0.0
21/04:30am 2.2 0.5 2.1 99 0.0 CALM 0 0 0 0 - - 0.0
21/04:00am 2.5 0.9 2.4 99 0.0 CALM 0 0 0 0 - - 0.0
21/03:30am 3.0 1.5 2.9 99 0.0 CALM 0 0 0 0 - - 0.0
21/03:00am 2.8 0.5 2.7 99 0.0 SSW 4 7 2 4 - - 0.0
21/02:30am 2.8 1.2 2.7 99 0.0 CALM 0 0 0 0 - - 0.0
21/02:00am 2.7 1.1 2.4 98 0.1 CALM 0 0 0 0 - - 0.0
21/01:30am 2.8 1.2 2.5 98 0.1 CALM 0 0 0 0 - - 0.0
21/01:00am 3.2 1.7 2.9 98 0.1 CALM 0 0 0 0 - - 0.0
21/12:30am 3.5 2.0 2.9 96 0.2 CALM 0 2 0 1 - - 0.0
21/12:00am 4.3 3.0 4.0 98 0.1 CALM 0 0 0 0 - - 0.0
 
Date/Time
EST
Temp
°C
App
Temp
°C
Dew
Point
Rel
Hum
%
Delta-T
°C
Wind Press
QNH
hPa
Press
MSL
hPa
Rain
since 9 am
mm
Dir
 
Spd
km/h
Gust
km/h
Spd
kts
Gust
kts
20/11:30pm 4.5 3.1 3.8 95 0.3 CALM 0 0 0 0 - - 0.0
20/11:00pm 4.5 3.2 3.9 96 0.3 CALM 0 0 0 0 - - 0.0
20/10:30pm 5.0 3.7 4.1 94 0.4 CALM 0 0 0 0 - - 0.0
20/10:00pm 5.6 3.3 4.6 93 0.4 S 6 7 3 4 - - 0.0
20/09:30pm 5.4 4.2 4.4 93 0.4 CALM 0 0 0 0 - - 0.0
20/09:00pm 5.7 4.2 4.8 94 0.4 S 2 7 1 4 - - 0.0
20/08:30pm 5.5 4.3 4.5 93 0.4 CALM 0 0 0 0 - - 0.0
20/08:00pm 5.6 4.2 3.8 88 0.8 CALM 0 0 0 0 - - 0.0

Other Formats:

Comma delimited format used in spreadsheet applications
http://www.bom.gov.au/fwo/IDN60801/IDN60801.94757.axf

JavaScript Object Notation format (JSON) in row-major order
http://www.bom.gov.au/fwo/IDN60801/IDN60801.94757.json